Charleston, SC

8:56 AM EDT on July 27, 2017 (GMT -0400)
Charleston Air Force Base-International

Weather History for KCHS - September, 2013

Change the Weather History Date:

Tuesday, September 3, 2013

  Actual Average Record
Temperature  
Mean Temperature 83 °F 79 °F  
Max Temperature 93 °F 87 °F 97 °F (1944)
Min Temperature 73 °F 70 °F 57 °F (1954)
Degree Days  
Heating Degree Days 0 0  
Month to date heating degree days 0 0  
Since 1 July heating degree days 0 0  
Cooling Degree Days 18 14  
Month to date cooling degree days 57 42  
Year to date cooling degree days 1912 1847  
Growing Degree Days 33 (Base 50)    
Moisture  
Dew Point 71 °F    
Average Humidity 70    
Maximum Humidity 87    
Minimum Humidity 52    
Precipitation  
Precipitation T in 0.23 in 2.60 in (1998)
Month to date precipitation 0.35 0.71  
Year to date precipitation 46.41 36.35  
Sea Level Pressure  
Sea Level Pressure 29.91 in    
Wind  
Wind Speed 8 mph (WSW)    
Max Wind Speed 18 mph    
Max Gust Speed 26 mph    
Visibility 10 miles    
Events Rain , Thunderstorm    
T = Trace of Precipitation, MM = Missing Value Source: NWS Daily Summary

Daily Weather History Graph

Daily Weather History Graph

Search for Another Location

Airport or City:

Trip Planner

Search our weather history database for the weather conditions in past years. The results will help you decide how hot, cold, wet, or windy it might be!

Date:

Astronomy

Sep. 03, 2013 Rise Set
Actual Time 6:56 AM EDT 7:42 PM EDT
Civil Twilight 6:31 AM EDT 8:07 PM EDT
Nautical Twilight 6:01 AM EDT 8:36 PM EDT
Astronomical Twilight 5:31 AM EDT 9:06 PM EDT
Moon 5:11 AM EDT (9/3) 6:27 PM EDT (9/3)
Length of Visible Light 13h 36m
Length of Day
12h 45m
Waning Crescent, 3% of the Moon is Illuminated
Sep 3
Waning Crescent
Sep 5
New
Sep 12
First Quarter
Sep 19
Full
Sep 26
Last Quarter

Hourly Weather History & Observations

Time (EDT) Temp. Heat Index Dew Point Humidity Pressure Visibility Wind Dir Wind Speed Gust Speed Precip Events Conditions
12:56 AM 75.0 °F - 72.0 °F 90% 29.91 in 10.0 mi WSW 8.1 mph - N/A   Scattered Clouds
1:56 AM 75.0 °F - 71.1 °F 87% 29.89 in 10.0 mi SW 4.6 mph - N/A   Mostly Cloudy
2:56 AM 75.0 °F - 71.1 °F 87% 29.88 in 10.0 mi SSW 8.1 mph - N/A   Mostly Cloudy
3:56 AM 75.9 °F - 70.0 °F 82% 29.88 in 10.0 mi West 6.9 mph - N/A   Mostly Cloudy
4:56 AM 75.0 °F - 70.0 °F 84% 29.88 in 10.0 mi SW 5.8 mph - N/A   Scattered Clouds
5:56 AM 73.9 °F - 70.0 °F 87% 29.89 in 10.0 mi WSW 8.1 mph - N/A   Clear
6:56 AM 73.9 °F - 70.0 °F 87% 29.91 in 10.0 mi West 6.9 mph - N/A   Scattered Clouds
7:56 AM 75.0 °F - 71.1 °F 87% 29.92 in 10.0 mi West 8.1 mph - N/A   Scattered Clouds
8:56 AM 79.0 °F - 72.0 °F 79% 29.93 in 10.0 mi West 9.2 mph - N/A   Scattered Clouds
9:56 AM 81.0 °F 85.2 °F 72.0 °F 74% 29.95 in 10.0 mi West 9.2 mph - N/A   Scattered Clouds
10:56 AM 84.9 °F 91.4 °F 73.0 °F 67% 29.94 in 10.0 mi WSW 8.1 mph - N/A   Scattered Clouds
11:56 AM 88.0 °F 96.5 °F 73.9 °F 63% 29.94 in 10.0 mi WSW 6.9 mph - N/A   Scattered Clouds
12:56 PM 91.0 °F 99.3 °F 73.0 °F 55% 29.90 in 10.0 mi WSW 10.4 mph - N/A   Scattered Clouds
1:56 PM 91.0 °F 98.2 °F 72.0 °F 53% 29.90 in 10.0 mi WSW 13.8 mph - N/A   Scattered Clouds
2:56 PM 93.0 °F 101.9 °F 73.0 °F 52% 29.87 in 10.0 mi West 15.0 mph 20.7 mph N/A   Scattered Clouds
3:56 PM 91.9 °F 101.3 °F 73.9 °F 55% 29.86 in 10.0 mi SW 13.8 mph 20.7 mph N/A   Scattered Clouds
4:56 PM 91.9 °F 98.4 °F 71.1 °F 50% 29.85 in 10.0 mi West 13.8 mph - N/A   Scattered Clouds
5:43 PM 89.6 °F 96.2 °F 71.6 °F 55% 29.85 in 10.0 mi WSW 10.4 mph - N/A Thunderstorm Thunderstorm
5:56 PM 89.1 °F 97.0 °F 73.0 °F 59% 29.87 in 10.0 mi WSW 11.5 mph - N/A Thunderstorm Thunderstorm
6:43 PM 82.4 °F 87.2 °F 71.6 °F 70% 29.87 in 10.0 mi SSW 5.8 mph - N/A   Mostly Cloudy
6:56 PM 82.9 °F 87.0 °F 70.0 °F 65% 29.87 in 10.0 mi SW 5.8 mph - N/A   Mostly Cloudy
7:41 PM 80.6 °F 84.6 °F 71.6 °F 74% 29.91 in 10.0 mi West 16.1 mph 20.7 mph 0.00 in Rain , Thunderstorm Light Thunderstorms and Rain
7:56 PM 80.1 °F 82.9 °F 69.1 °F 69% 29.90 in 10.0 mi WSW 12.7 mph - 0.00 in Rain , Thunderstorm Light Thunderstorms and Rain
8:32 PM 78.8 °F - 66.2 °F 65% 29.93 in 10.0 mi West 4.6 mph - 0.00 in   Mostly Cloudy
8:56 PM 77.0 °F - 66.9 °F 71% 29.95 in 10.0 mi SW 6.9 mph - 0.00 in   Mostly Cloudy
9:56 PM 77.0 °F - 68.0 °F 74% 29.94 in 10.0 mi Calm Calm - N/A   Overcast
10:56 PM 77.0 °F - 68.0 °F 74% 29.96 in 10.0 mi WSW 3.5 mph - N/A   Mostly Cloudy
11:56 PM 78.1 °F - 69.1 °F 74% 29.96 in 10.0 mi West 6.9 mph - N/A   Mostly Cloudy